Flag for Denmark Weather past 2 weeks in Aarhus, Denmark

Now
57 °F

Overcast.


Feels Like: 54 °F
Forecast: 51 / 63 °F
Wind: 16 mph from West

Location: Tirstrup

Current Time: Jul 30, 2015 at 10:55:54 PM

Latest Report: Jul 30, 2015 at 10:20 PM


Visibility: N/A

Pressure: 29.74 "Hg

Humidity: 77%

Dew point: 50 °F

Location of AarhusLocation

Historic Weather in Aarhus — Graph

°F

Aarhus temperature yesterday

Maximum temperature yesterday: 64 °F (at 1:50 PM)
Minimum temperature yesterday: 55 °F (at 10:50 PM)
Average temperature yesterday: 60 °F

Past Weeks' High & Low Weather Summary

 TemperatureHumidityPressure
High72 °F (Jul 18, 12:50 PM)94% (Jul 20, 4:50 AM)30.07 "Hg (Jul 20, 4:50 AM)
Low45 °F (Jul 30, 4:50 AM)27% (Jul 18, 3:20 PM)29.36 "Hg (Jul 28, 5:20 AM)
Average60 °F69%29.75 "Hg
* Reported Jul 15 9:20 PM — Jul 30 9:20 PM, Aarhus, Weather by CustomWeather, © 2015

Note: Actual official high and low records may vary slightly from our data, if they occured in-between our weather recording intervals... More about our weather records

Advertising

Aarhus weather history for previous 24 hours

 ConditionsComfort  
Time TempWeatherWind HumidityBarometerVisibility
9:20 PM
Thu, Jul 30
61 °FPartly sunny.12 mph77%29.71 "HgN/A
8:50 PM61 °FPartly sunny.14 mph77%29.68 "HgN/A
8:20 PM61 °FBroken clouds.8 mph83%29.68 "HgN/A
7:50 PM63 °FBroken clouds.7 mph77%29.68 "HgN/A
7:20 PM63 °FRain showers. Broken clouds.7 mph77%29.65 "HgN/A
6:50 PM64 °FBroken clouds.8 mph64%29.65 "HgN/A
6:20 PM66 °FBroken clouds.9 mph56%29.65 "HgN/A
5:50 PM66 °FMild.10 mph56%29.65 "HgN/A
5:20 PM66 °FPartly sunny.7 mph56%29.65 "HgN/A
4:50 PM66 °FSprinkles. Partly sunny.8 mph56%29.62 "HgN/A
4:20 PM68 °FPartly sunny.9 mph49%29.62 "HgN/A
3:50 PM68 °FScattered clouds.7 mph46%29.62 "HgN/A
3:20 PM70 °FPassing clouds.7 mph50%29.62 "HgN/A
2:50 PM68 °FScattered clouds.7 mph49%29.62 "HgN/A
2:20 PM66 °FPartly sunny.6 mph49%29.62 "HgN/A
1:50 PM66 °FBroken clouds.7 mph52%29.59 "HgN/A
1:20 PM66 °FPartly sunny.5 mph52%29.59 "HgN/A
12:50 PM66 °FPartly sunny.5 mph52%29.59 "HgN/A
12:20 PM66 °FPassing clouds.5 mph52%29.59 "HgN/A
11:50 AM64 °FMild.6 mph52%29.59 "HgN/A
11:20 AM63 °FPartly sunny.6 mph59%29.56 "HgN/A
10:50 AM63 °FMild.3 mph59%29.56 "HgN/A
10:20 AM61 °FCool.5 mph63%29.56 "HgN/A
9:50 AM61 °FCool.6 mph68%29.56 "HgN/A
9:20 AM59 °FCool.5 mph72%29.53 "HgN/A
8:50 AM57 °FCool.3 mph82%29.53 "HgN/A
8:20 AM54 °FCool.5 mph94%29.53 "HgN/A
7:50 AM52 °FCool.3 mph94%29.53 "HgN/A
7:20 AM50 °FCool.1 mph88%29.53 "HgN/A
6:50 AM48 °FFog.No wind87%29.50 "Hg1 mi
6:20 AM45 °FFog.1 mph87%29.50 "Hg1 mi
5:50 AM45 °FFog.No wind87%29.50 "Hg1 mi
5:20 AM45 °FLight fog.No wind87%29.50 "Hg0 mi
4:50 AM45 °FFog.2 mph87%29.50 "Hg0 mi
4:20 AM46 °FFog.1 mph82%29.50 "Hg0 mi
3:50 AM48 °FDense fog.No wind82%29.50 "Hg1 mi
3:20 AM48 °FFog.1 mph82%29.50 "Hg1 mi
2:50 AM48 °FFog.No wind87%29.50 "Hg1 mi
2:20 AM50 °FFog.No wind82%29.47 "Hg0 mi
1:50 AM50 °FPassing clouds.No wind82%29.47 "Hg4 mi
1:20 AM52 °FCool.1 mph77%29.47 "HgN/A
12:50 AM52 °FCool.1 mph82%29.47 "HgN/A
12:20 AM52 °FPassing clouds.1 mph77%29.47 "HgN/A
11:50 PM
Wed, Jul 29
55 °FCool.1 mph72%29.47 "HgN/A
11:20 PM55 °FCool.2 mph77%29.47 "HgN/A
10:50 PM55 °FCool.3 mph77%29.47 "HgN/A
10:20 PM57 °FCool.1 mph67%29.47 "HgN/A
Weather by CustomWeather, © 2015

See weather overviewHow to use our weather pages